FW0267 Weather Reports


time (UTC)temp
F
wind
direction
speed
knots
gust
knots
rain 1hr
in
rain 24hr
in
rain mn
in
humidity
%
barometer
mb
20260902045543 0 117 0.0 0.9 0.00 0.00 0.00 1017.0
20260902045042 0 119 0.0 0.9 0.00 0.00 0.00 1017.0
20260902044540 0 123 0.0 0.9 0.00 0.00 0.00 1016.9
20260902044039 0 128 0.0 0.9 0.00 0.00 0.00 1016.9
20260902043538 0 128 0.0 0.9 0.00 0.00 0.00 1016.9
20260902043036 0 126 0.0 1.7 0.00 0.00 0.00 1016.9
20260902042536 0 132 0.0 1.7 0.00 0.00 0.00 1016.8
20260902042034 0 127 0.0 1.7 0.00 0.00 0.00 1016.8
20260902041536 0 140 0.0 0.9 0.00 0.00 0.00 1016.8
20260902041031 0 157 0.0 0.9 0.00 0.00 0.00 1016.7
20260902040529 0 136 0.0 0.9 0.00 0.00 0.00 1016.6
20260902040028 0 118 0.0 0.9 0.00 0.00 0.00 1016.7
20260902035526 0 118 0.0 0.9 0.00 0.00 0.00 1016.6
20260902035027 0 121 0.0 0.9 0.00 0.00 0.00 1016.6
20260902034527 0 129 0.0 0.9 0.00 0.00 0.00 1016.5
20260902034025 0 121 0.0 0.9 0.00 0.00 0.00 1016.4
20260902033521 0 131 0.0 1.7 0.00 0.00 0.00 1016.4
20260902033019 0 132 0.0 1.7 0.00 0.00 0.00 1016.2
20260902032519 0 128 0.9 1.7 0.00 0.00 0.00 1016.2
20260902032016 0 123 0.0 0.9 0.00 0.00 0.00 1016.4
20260902031517 0 124 0.0 1.7 0.00 0.00 0.00 1016.2
20260902031013 0 130 0.0 1.7 0.00 0.00 0.00 1016.1
20260902030513 0 128 0.0 1.7 0.00 0.00 0.00 1016.1
20260902030012 0 126 0.0 1.7 0.00 0.00 0.00 1016.1
20260902025510 0 126 0.0 1.7 0.00 0.00 0.00 1016.1
20260902025008 0 128 0.0 1.7 0.00 0.00 0.00 1016.1
20260902024509 0 126 0.0 0.9 0.00 0.00 0.00 1016.2
20260902024005 0 130 0.0 0.9 0.00 0.00 0.00 1016.2
20260902023503 0 124 0.0 1.7 0.00 0.00 0.00 1016.2
20260902023002 0 122 0.0 0.9 0.00 0.00 0.00 1016.1
20260902022601 0 112 0.0 0.9 0.00 0.00 0.00 1016.2
20260902022102 0 112 0.0 1.7 0.00 0.00 0.00 1016.4
20260902021558 0 105 0.0 0.9 0.00 0.00 0.00 1016.2
20260902021056 0 121 0.0 0.9 0.00 0.00 0.00 1016.3
20260902020555 0 115 0.0 0.9 0.00 0.00 0.00 1016.1
20260902020100 0 118 0.0 0.9 0.00 0.00 0.00 1016.1
20260902015553 0 124 0.0 0.9 0.00 0.00 0.00 1016.1
20260902015050 0 105 0.0 1.7 0.00 0.00 0.00 1015.9
20260902014551 0 117 0.0 1.7 0.00 0.00 0.00 1015.8
20260902014051 0 129 0.0 0.9 0.00 0.00 0.00 1015.8
20260902013546 0 127 0.0 0.9 0.00 0.00 0.00 1015.7
20260902013044 0 115 0.0 0.9 0.00 0.00 0.00 1015.8
20260902012542 0 115 0.0 0.9 0.00 0.00 0.00 1015.7
20260902012041 0 113 0.0 0.9 0.00 0.00 0.00 1015.6
20260902011540 0 109 0.0 0.9 0.00 0.00 0.00 1015.5
20260902011039 0 113 0.0 1.7 0.00 0.00 0.00 1015.6
20260902010536 0 114 0.0 1.7 0.00 0.00 0.00 1015.6
20260902010037 0 126 0.0 1.7 0.00 0.00 0.00 1015.6
20260902005534 0 110 0.0 1.7 0.00 0.00 0.00 1015.5
20260902005033 0 122 0.0 0.9 0.00 0.00 0.00 1015.5
20260902004531 0 128 0.0 1.7 0.00 0.00 0.00 1015.5
20260902004030 0 126 0.0 1.7 0.00 0.00 0.00 1015.5
20260902003528 0 123 0.0 1.7 0.00 0.00 0.00 1015.3
20260902003032 0 110 0.0 1.7 0.00 0.00 0.00 1015.3
20260902002525 0 124 0.0 0.9 0.00 0.00 0.00 1015.3
20260902002023 0 114 0.0 0.9 0.00 0.00 0.00 1015.3
20260902001539 0 34 0.0 0.9 0.00 0.00 0.00 1015.3
20260902001020 0 85 0.0 0.9 0.00 0.00 0.00 1015.3
20260902000519 0 106 0.0 0.9 0.00 0.00 0.00 1015.2
20260902000026 0 117 0.0 0.9 0.00 0.00 0.00 1015.2
20260901235516 0 104 0.0 0.9 0.00 0.00 0.00 1015.2
20260901235015 0 111 0.0 0.9 0.00 0.00 0.00 1015.2
20260901234514 0 90 0.0 1.7 0.00 0.00 0.00 1015.3
20260901234012 0 112 0.0 0.9 0.00 0.00 0.00 1015.2
20260901233611 0 115 0.0 1.7 0.00 0.00 0.00 1015.2
20260901233008 0 90 0.0 2.6 0.00 0.00 0.00 1015.3
20260901232508 0 130 0.9 2.6 0.00 0.00 0.00 1015.4
20260901232006 0 117 0.0 1.7 0.00 0.00 0.00 1015.3
20260901231506 0 117 0.0 1.7 0.00 0.00 0.00 1015.3
20260901231003 0 133 0.0 1.7 0.00 0.00 0.00 1015.4
20260901230502 0 117 0.0 0.9 0.00 0.00 0.00 1015.3
20260901230100 0 114 0.0 0.9 0.00 0.00 0.00 1015.4
20260901225558 0 114 0.0 0.9 0.00 0.00 0.00 1015.5
20260901225057 0 131 0.0 0.9 0.00 0.00 0.00 1015.6
20260901224600 0 116 0.0 0.9 0.00 0.00 0.00 1015.6
20260901224054 0 109 0.0 0.9 0.00 0.00 0.00 1015.6
20260901223556 0 122 0.0 1.7 0.00 0.00 0.00 1015.6
20260901223051 0 120 0.0 1.7 0.00 0.00 0.00 1015.6
20260901222549 0 119 0.0 1.7 0.00 0.00 0.00 1015.7
20260901222048 0 118 0.0 1.7 0.00 0.00 0.00 1015.7
20260901221547 0 107 0.0 1.7 0.00 0.00 0.00 1015.6
20260901221047 0 116 0.0 1.7 0.00 0.00 0.00 1015.7
20260901220544 0 123 0.0 1.7 0.00 0.00 0.00 1015.7
20260901220107 0 109 0.0 1.7 0.00 0.00 0.00 1015.7
20260901215542 0 113 0.0 1.7 0.00 0.00 0.00 1015.6
20260901215040 0 118 0.0 1.7 0.00 0.00 0.00 1015.7
20260901214537 0 112 0.0 1.7 0.00 0.00 0.00 1015.7
20260901214036 0 154 0.0 1.7 0.00 0.00 0.00 1015.7
20260901213536 0 130 0.0 1.7 0.00 0.00 0.00 1015.8
20260901213033 0 120 0.0 1.7 0.00 0.00 0.00 1015.8
20260901212531 0 156 0.0 1.7 0.00 0.00 0.00 1015.8
20260901212030 0 33 0.0 1.7 0.00 0.00 0.00 1015.8
20260901211536 0 23 0.0 1.7 0.00 0.00 0.00 1016.0
20260901211027 0 96 0.0 1.7 0.00 0.00 0.00 1015.9
20260901210526 0 53 0.0 1.7 0.00 0.00 0.00 1016.0
20260901210024 0 10 0.0 1.7 0.00 0.00 0.00 1015.9
20260901205526 0 163 0.0 1.7 0.00 0.00 0.00 1016.0
20260901205021 0 12 0.0 1.7 0.00 0.00 0.00 1016.0
20260901204524 0 88 0.0 1.7 0.00 0.00 0.00 1016.1
20260901204019 0 115 0.0 2.6 0.00 0.00 0.00 1016.1
20260901203517 0 99 0.0 2.6 0.00 0.00 0.00 1016.1
20260901203021 0 64 0.0 2.6 0.00 0.00 0.00 1016.2
20260901202513 0 103 0.0 1.7 0.00 0.00 0.00 1016.2
20260901202012 0 119 0.0 2.6 0.00 0.00 0.00 1016.3
20260901201511 0 12 0.0 2.6 0.00 0.00 0.00 1016.4
20260901201010 0 49 0.9 1.7 0.00 0.00 0.00 1016.4
20260901200512 0 5 0.0 1.7 0.00 0.00 0.00 1016.3
20260901200009 0 100 0.9 1.7 0.00 0.00 0.00 1016.4
20260901195505 0 138 0.9 1.7 0.00 0.00 0.00 1016.5
20260901195004 0 107 0.0 2.6 0.00 0.00 0.00 1016.4
20260901194502 0 5 0.9 2.6 0.00 0.00 0.00 1016.4
20260901194002 0 47 0.0 2.6 0.00 0.00 0.00 1016.5
20260901193559 0 120 0.9 2.6 0.00 0.00 0.00 1016.5
20260901193107 0 49 0.9 2.6 0.00 0.00 0.00 1016.5
20260901192556 0 42 0.0 2.6 0.00 0.00 0.00 1016.6
20260901192057 0 100 0.0 2.6 0.00 0.00 0.00 1016.6
20260901191553 0 350 0.9 1.7 0.00 0.00 0.00 1016.7
20260901191053 0 133 0.0 1.7 0.00 0.00 0.00 1016.7
20260901190550 0 127 0.0 1.7 0.00 0.00 0.00 1016.8
20260901190048 0 338 0.0 1.7 0.00 0.00 0.00 1017.0
20260901185546 0 355 0.9 2.6 0.00 0.00 0.00 1017.0
20260901185045 0 12 0.9 2.6 0.00 0.00 0.00 1017.1
20260901184545 0 19 0.9 3.5 0.00 0.00 0.00 1017.1
20260901184043 0 80 0.9 3.5 0.00 0.00 0.00 1017.1
20260901183541 0 48 0.9 2.6 0.00 0.00 0.00 1017.1
20260901183040 0 20 0.9 2.6 0.00 0.00 0.00 1017.2
20260901182539 0 126 0.9 1.7 0.00 0.00 0.00 1017.1
20260901182039 0 146 0.9 2.6 0.00 0.00 0.00 1017.0
20260901181541 0 350 0.0 2.6 0.00 0.00 0.00 1017.0
20260901181037 0 83 0.0 2.6 0.00 0.00 0.00 1017.0
20260901180535 0 143 0.9 1.7 0.00 0.00 0.00 1016.9
20260901180034 0 117 0.0 1.7 0.00 0.00 0.00 1016.9
20260901175532 0 118 0.0 2.6 0.00 0.00 0.00 1016.8
20260901175031 0 134 0.9 2.6 0.00 0.00 0.00 1016.8
20260901174530 0 144 0.9 2.6 0.00 0.00 0.00 1016.9
20260901174029 0 5 0.9 1.7 0.00 0.00 0.00 1017.0
20260901173529 0 80 0.0 2.6 0.00 0.00 0.00 1017.0
20260901173025 0 26 0.9 2.6 0.00 0.00 0.00 1017.0
20260901172525 0 346 0.9 2.6 0.00 0.00 0.00 1017.0
20260901172023 0 109 0.0 1.7 0.00 0.00 0.00 1016.9
20260901171522 0 35 0.9 2.6 0.00 0.00 0.00 1016.9
20260901171021 0 355 0.9 2.6 0.00 0.00 0.00 1017.0
20260901170519 0 119 0.9 2.6 0.00 0.00 0.00 1017.1
20260901170049 0 114 0.0 2.6 0.00 0.00 0.00 1017.1
20260901165515 0 346 0.9 2.6 0.00 0.00 0.00 1017.1
20260901165014 0 170 0.9 2.6 0.00 0.00 0.00 1017.1
20260901164514 0 59 0.9 2.6 0.00 0.00 0.00 1017.2
20260901164011 0 98 0.0 3.5 0.00 0.00 0.00 1017.3
20260901163510 0 355 0.0 2.6 0.00 0.00 0.00 1017.4
20260901163016 0 15 0.0 2.6 0.00 0.00 0.00 1017.4
20260901162507 0 130 0.9 2.6 0.00 0.00 0.00 1017.5
20260901162006 0 126 0.0 1.7 0.00 0.00 0.00 1017.5
20260901161504 0 75 0.0 1.7 0.00 0.00 0.00 1017.6
20260901161005 0 123 0.0 1.7 0.00 0.00 0.00 1017.7
20260901160502 0 126 0.0 1.7 0.00 0.00 0.00 1017.9
20260901160101 0 105 0.0 2.6 0.00 0.00 0.00 1017.9
20260901155558 0 45 0.9 2.6 0.00 0.00 0.00 1017.9
20260901155057 0 154 0.0 1.7 0.00 0.00 0.00 1017.9
20260901154606 0 111 0.0 1.7 0.00 0.00 0.00 1018.1
20260901154054 0 119 0.0 0.9 0.00 0.00 0.00 1018.1
20260901153555 0 130 0.0 0.9 0.00 0.00 0.00 1018.1
20260901153051 0 127 0.0 1.7 0.00 0.00 0.00 1018.2
20260901152549 0 158 0.0 1.7 0.00 0.00 0.00 1018.2
20260901152048 0 143 0.0 1.7 0.00 0.00 0.00 1018.3
20260901151554 0 149 0.0 1.7 0.00 0.00 0.00 1018.3
20260901151046 0 150 0.0 0.9 0.00 0.00 0.00 1018.2
20260901150546 0 141 0.0 0.9 0.00 0.00 0.00 1018.3
20260901150058 0 146 0.0 0.9 0.00 0.00 0.00 1018.3
20260901145541 0 156 0.0 0.9 0.00 0.00 0.00 1018.3
20260901145039 0 148 0.0 0.9 0.00 0.00 0.00 1018.5
20260901144544 0 123 0.0 0.9 0.00 0.00 0.00 1018.5
20260901144040 0 128 0.0 1.7 0.00 0.00 0.00 1018.5
20260901143537 0 140 0.0 1.7 0.00 0.00 0.00 1018.5
20260901143035 0 129 0.0 0.9 0.00 0.00 0.00 1018.5
20260901142534 0 130 0.0 0.9 0.00 0.00 0.00 1018.4
20260901142032 0 141 0.0 0.9 0.00 0.00 0.00 1018.4
20260901141531 0 138 0.0 0.9 0.00 0.00 0.00 1018.5
20260901141032 0 90 0.0 1.7 0.00 0.00 0.00 1018.4
20260901140527 0 20 0.0 1.7 0.00 0.00 0.00 1018.4
20260901140026 0 101 0.0 1.7 0.00 0.00 0.00 1018.3
20260901135525 0 120 0.0 0.9 0.00 0.00 0.00 1018.4
20260901135023 0 138 0.0 0.9 0.00 0.00 0.00 1018.4
20260901134521 0 115 0.0 0.9 0.00 0.00 0.00 1018.4
20260901134021 0 128 0.0 0.9 0.00 0.00 0.00 1018.3
20260901133519 0 126 0.0 0.0 0.00 0.00 0.00 1018.5
20260901133018 0 126 0.0 1.7 0.00 0.00 0.00 1018.5
20260901132516 0 126 0.0 1.7 0.00 0.00 0.00 1018.6
20260901132014 0 125 0.0 0.9 0.00 0.00 0.00 1018.5
20260901131520 0 119 0.0 0.9 0.00 0.00 0.00 1018.6
20260901131012 0 113 0.0 0.9 0.00 0.00 0.00 1018.6
20260901130511 0 128 0.0 0.9 0.00 0.00 0.00 1018.6
20260901130009 0 126 0.0 0.9 0.00 0.00 0.00 1018.7
20260901125507 0 128 0.0 0.9 0.00 0.00 0.00 1018.7
20260901125006 0 130 0.0 0.0 0.00 0.00 0.00 1018.7
20260901124505 0 123 0.0 0.0 0.00 0.00 0.00 1018.7
20260901124004 0 123 0.0 0.0 0.00 0.00 0.00 1018.6
20260901123504 0 123 0.0 0.9 0.00 0.00 0.00 1018.7
20260901123114 0 123 0.0 0.9 0.00 0.00 0.00 1018.6
20260901122559 0 123 0.0 0.9 0.00 0.00 0.00 1018.7
20260901122056 0 122 0.0 0.9 0.00 0.00 0.00 1018.7
20260901121604 0 124 0.0 0.9 0.00 0.00 0.00 1018.6
20260901121056 0 123 0.0 0.9 0.00 0.00 0.00 1018.7
20260901120556 0 114 0.0 0.0 0.00 0.00 0.00 1018.6
20260901120059 0 113 0.0 0.0 0.00 0.00 0.00 1018.7
20260901115557 0 113 0.0 0.0 0.00 0.00 0.00 1018.6
20260901115052 0 113 0.0 0.0 0.00 0.00 0.00 1018.5
20260901114555 0 113 0.0 0.9 0.00 0.00 0.00 1018.5
20260901114050 0 113 0.0 0.9 0.00 0.00 0.00 1018.5
20260901113549 0 113 0.0 0.9 0.00 0.00 0.00 1018.4
20260901113056 0 116 0.0 0.9 0.00 0.00 0.00 1018.3
20260901112547 0 117 0.0 0.9 0.00 0.00 0.00 1018.1
20260901112044 0 117 0.0 0.0 0.00 0.00 0.00 1018.2
20260901111544 0 117 0.0 0.0 0.00 0.00 0.00 1018.2
20260901111041 0 117 0.0 0.0 0.00 0.00 0.00 1018.1
20260901110539 0 117 0.0 0.9 0.00 0.00 0.00 1018.1
20260901110038 0 117 0.0 0.9 0.00 0.00 0.00 1018.1
20260901105536 0 121 0.0 0.9 0.00 0.00 0.00 1018.0
20260901105037 0 121 0.0 1.7 0.00 0.00 0.00 1017.9
20260901104540 0 119 0.0 1.7 0.00 0.00 0.00 1017.9
20260901104032 0 117 0.0 0.9 0.00 0.00 0.00 1017.9
20260901103530 0 117 0.0 0.9 0.00 0.00 0.00 1017.9
20260901103031 0 108 0.0 0.0 0.00 0.00 0.00 1017.9
20260901102528 0 108 0.0 0.0 0.00 0.00 0.00 1018.0
20260901102026 0 108 0.0 0.0 0.00 0.00 0.00 1018.0
20260901101525 0 108 0.0 0.9 0.00 0.00 0.00 1018.0
20260901101023 0 108 0.0 0.9 0.00 0.00 0.00 1018.0
20260901100524 0 114 0.0 1.7 0.00 0.00 0.00 1018.0
20260901100023 0 115 0.0 1.7 0.00 0.00 0.00 1017.9
20260901095523 0 128 0.0 1.7 0.00 0.00 0.00 1017.9
20260901095022 0 127 0.0 1.7 0.00 0.00 0.00 1017.9
20260901094530 0 128 0.0 0.9 0.00 0.00 0.00 1018.0
20260901094019 0 127 0.0 0.0 0.00 0.00 0.00 1018.1
20260901093517 0 127 0.0 0.0 0.00 0.00 0.00 1018.0
20260901093016 0 127 0.0 0.9 0.00 0.00 0.00 1018.2
20260901092514 0 127 0.0 0.9 0.00 0.00 0.00 1018.1
20260901092013 0 127 0.0 0.9 0.00 0.00 0.00 1018.1
20260901091511 0 127 0.0 0.9 0.00 0.00 0.00 1018.0
20260901091011 0 113 0.0 0.9 0.00 0.00 0.00 1018.0
20260901090508 0 113 0.0 0.9 0.00 0.00 0.00 1017.8
20260901090010 0 113 0.0 0.9 0.00 0.00 0.00 1017.8
20260901085506 0 117 0.0 0.9 0.00 0.00 0.00 1017.7
20260901085005 0 122 0.0 0.0 0.00 0.00 0.00 1017.7
20260901084503 0 122 0.0 0.0 0.00 0.00 0.00 1017.8
20260901084002 0 122 0.0 0.0 0.00 0.00 0.00 1017.8
20260901083500 0 122 0.0 0.0 0.00 0.00 0.00 1017.7
20260901083100 0 122 0.0 0.9 0.00 0.00 0.00 1017.8
20260901082556 0 122 0.0 0.9 0.00 0.00 0.00 1017.9
20260901082055 0 123 0.0 0.9 0.00 0.00 0.00 1017.8
20260901081554 0 123 0.0 0.9 0.00 0.00 0.00 1017.8
20260901081055 0 122 0.0 0.9 0.00 0.00 0.00 1018.0
20260901080552 0 123 0.0 0.9 0.00 0.00 0.00 1017.9
20260901080055 0 126 0.0 0.0 0.00 0.00 0.00 1018.0
20260901075551 0 126 0.0 0.0 0.00 0.00 0.00 1018.0
20260901075050 0 126 0.0 0.9 0.00 0.00 0.00 1018.0
20260901074556 0 126 0.0 1.7 0.00 0.00 0.00 1018.1
20260901074044 0 126 0.0 1.7 0.00 0.00 0.00 1018.0
20260901073543 0 124 0.0 0.9 0.00 0.00 0.00 1018.0
20260901073041 0 124 0.0 0.9 0.00 0.00 0.00 1018.1
20260901072539 0 121 0.0 0.9 0.00 0.00 0.00 1018.0
20260901072038 0 121 0.0 0.9 0.00 0.00 0.00 1018.1
20260901071537 0 122 0.0 0.9 0.00 0.00 0.00 1018.2
20260901071035 0 123 0.0 0.0 0.00 0.00 0.00 1018.3
20260901070534 0 123 0.0 0.0 0.00 0.00 0.00 1018.4
20260901070036 0 123 0.0 0.9 0.00 0.00 0.00 1018.4
20260901065534 0 123 0.0 0.9 0.00 0.00 0.00 1018.5
20260901065032 0 124 0.0 1.7 0.00 0.00 0.00 1018.5
20260901064529 0 126 0.0 1.7 0.00 0.00 0.00 1018.4
20260901064027 0 126 0.0 0.9 0.00 0.00 0.00 1018.5
20260901063525 0 126 0.0 0.9 0.00 0.00 0.00 1018.5
20260901063025 0 126 0.0 0.9 0.00 0.00 0.00 1018.6
20260901062523 0 126 0.0 1.7 0.00 0.00 0.00 1018.6
20260901062023 0 121 0.0 1.7 0.00 0.00 0.00 1018.6
20260901061520 0 123 0.0 0.0 0.00 0.00 0.00 1018.7
20260901061018 0 123 0.0 0.0 0.00 0.00 0.00 1018.7
20260901060517 0 123 0.0 0.9 0.00 0.00 0.00 1018.8
20260901060015 0 123 0.0 1.7 0.00 0.00 0.00 1018.7
20260901055513 0 126 0.0 1.7 0.00 0.00 0.00 1018.8
20260901055012 0 127 0.0 1.7 0.00 0.00 0.00 1018.8
20260901054512 0 127 0.0 1.7 0.00 0.00 0.00 1018.9
20260901054009 0 126 0.0 0.9 0.00 0.00 0.00 1019.0
20260901053508 0 121 0.0 0.9 0.00 0.00 0.00 1019.1
20260901053107 0 121 0.0 0.9 0.00 0.00 0.00 1019.0
20260901052504 0 124 0.0 0.9 0.00 0.00 0.00 1019.0
20260901052002 0 123 0.0 0.9 0.00 0.00 0.00 1019.1
20260901051502 0 123 0.0 0.9 0.00 0.00 0.00 1019.1
20260901051100 0 124 0.0 0.9 0.00 0.00 0.00 1019.1
20260901050558 0 130 0.0 0.9 0.00 0.00 0.00 1019.1
20260901050100 0 130 0.0 0.9 0.00 0.00 0.00 1019.2